TimeCST,TemperatureF,Dew PointF,Humidity,Sea Level PressureIn,VisibilityMPH,Wind Direction,Wind SpeedMPH,Gust SpeedMPH,PrecipitationIn,Events,Conditions,WindDirDegrees,DateUTC
12:16 AM,32.0,21.2,64,30.03,10.0,WNW,13.8,17.3,N/A,,Overcast,290,2013-11-07 06:16:00
12:54 AM,32.0,21.0,64,30.07,10.0,WNW,10.4,-,N/A,,Overcast,290,2013-11-07 06:54:00
1:54 AM,32.0,21.9,66,30.07,10.0,West,9.2,-,N/A,,Overcast,280,2013-11-07 07:54:00
2:54 AM,32.0,23.0,69,30.08,10.0,WNW,8.1,-,N/A,,Overcast,290,2013-11-07 08:54:00
3:54 AM,30.9,23.0,72,30.08,10.0,West,6.9,-,N/A,,Overcast,270,2013-11-07 09:54:00
4:54 AM,30.9,23.0,72,30.09,10.0,West,6.9,-,N/A,,Overcast,280,2013-11-07 10:54:00
5:54 AM,30.9,23.0,72,30.09,10.0,West,8.1,-,N/A,,Overcast,260,2013-11-07 11:54:00
6:54 AM,30.9,23.0,72,30.09,10.0,West,8.1,-,N/A,,Overcast,270,2013-11-07 12:54:00
7:54 AM,30.9,24.1,76,30.10,10.0,West,10.4,-,N/A,,Overcast,280,2013-11-07 13:54:00
8:54 AM,32.0,24.1,73,30.10,10.0,West,9.2,-,N/A,,Overcast,260,2013-11-07 14:54:00
9:54 AM,33.1,25.0,72,30.11,10.0,WNW,10.4,-,N/A,,Overcast,290,2013-11-07 15:54:00
10:54 AM,35.1,25.0,67,30.12,10.0,WNW,8.1,-,N/A,,Overcast,300,2013-11-07 16:54:00
11:54 AM,34.0,25.0,70,30.11,9.0,WNW,10.4,-,0.00,Snow,Light Snow,290,2013-11-07 17:54:00
12:16 PM,35.6,26.6,70,30.07,9.0,WNW,8.1,-,N/A,,Overcast,290,2013-11-07 18:16:00
12:54 PM,35.1,25.0,67,30.11,10.0,WNW,9.2,-,0.00,,Overcast,290,2013-11-07 18:54:00
1:54 PM,35.1,25.0,67,30.10,10.0,West,9.2,-,N/A,,Overcast,270,2013-11-07 19:54:00
2:54 PM,34.0,25.0,70,30.11,10.0,West,11.5,-,N/A,,Overcast,280,2013-11-07 20:54:00
3:54 PM,33.1,24.1,70,30.12,10.0,West,11.5,19.6,0.00,,Overcast,280,2013-11-07 21:54:00
4:54 PM,33.1,23.0,66,30.12,10.0,West,6.9,-,N/A,,Overcast,280,2013-11-07 22:54:00
5:54 PM,32.0,24.1,73,30.14,10.0,WNW,6.9,-,N/A,,Overcast,290,2013-11-07 23:54:00
6:54 PM,33.1,23.0,66,30.14,10.0,WNW,9.2,-,N/A,,Overcast,290,2013-11-08 00:54:00
7:54 PM,32.0,23.0,69,30.14,10.0,WNW,8.1,-,N/A,,Overcast,300,2013-11-08 01:54:00
8:54 PM,32.0,24.1,73,30.14,10.0,WNW,9.2,-,0.00,,Overcast,290,2013-11-08 02:54:00
9:54 PM,32.0,24.1,73,30.15,10.0,WNW,8.1,-,N/A,,Overcast,290,2013-11-08 03:54:00
10:54 PM,32.0,24.1,73,30.15,10.0,WNW,6.9,-,N/A,,Overcast,300,2013-11-08 04:54:00
11:54 PM,32.0,24.1,73,30.16,10.0,WNW,6.9,-,N/A,,Overcast,290,2013-11-08 05:54:00